Weather History for Sheridan, WY

Change the Weather History Date:

Sunday, June 30, 2013

  Actual Average Record
Temperature  
Mean Temperature 74 °F 66 °F  
Max Temperature 89 °F 83 °F 98 °F (1953)
Min Temperature 58 °F 50 °F 36 °F (1995)
Degree Days  
Heating Degree Days 0 2  
Month to date heating degree days 120 148  
Since 1 June heating degree days 120 149  
Since 1 July heating degree days 7551 7643  
Cooling Degree Days 9 3  
Month to date cooling degree days 48 46  
Year to date cooling degree days 56 50  
Since 1 June cooling degree days 48 46  
Growing Degree Days 23 (Base 50)    
Moisture  
Dew Point 53 °F    
Average Humidity 55    
Maximum Humidity 80    
Minimum Humidity 29    
Precipitation  
Precipitation 0.00 in 0.04 in 0.29 in (1959)
Month to date precipitation 2.19 2.12  
Year to date precipitation 9.51 8.15  
Sea Level Pressure  
Sea Level Pressure 30.05 in    
Wind  
Wind Speed 4 mph (ENE)    
Max Wind Speed 12 mph    
Max Gust Speed 16 mph    
Visibility 10 miles    
Events      
T = Trace of Precipitation, MM = Missing Value Source: NWS Daily Summary

Daily Weather History Graph

Daily Weather History Graph

Search for Another Location

Airport:

Trip Planner

Search our weather history database for the weather conditions in past years. The results will help you decide how hot, cold, wet, or windy it might be!

Date:

Astronomy

Jun. 30, 2013 Rise Set
Actual Time 5:25 AM MDT 8:57 PM MDT
Civil Twilight 4:48 AM MDT 9:34 PM MDT
Nautical Twilight 3:59 AM MDT 10:23 PM MDT
Astronomical Twilight 2:56 AM MDT 11:26 PM MDT
Moon 12:38 AM MDT (6/30) 2:04 PM MDT (6/30)
Length of Visible Light 16h 45m
Length of Day
15h 31m
Last Quarter, 45% of the Moon is Illuminated
Jun 30
Last Quarter
Jul 8
New
Jul 15
First Quarter
Jul 22
Full
Jul 29
Last Quarter

Hourly Weather History & Observations

Time (MDT) Temp. Heat Index Dew Point Humidity Pressure Visibility Wind Dir Wind Speed Gust Speed Precip Events Conditions
12:53 AM 64.9 °F - 53.1 °F 65% 30.09 in 10.0 mi NW 5.8 mph - N/A   Scattered Clouds
1:53 AM 64.9 °F - 53.1 °F 65% 30.06 in 10.0 mi Calm Calm - N/A   Clear
2:53 AM 64.0 °F - 55.0 °F 73% 30.03 in 10.0 mi ENE 8.1 mph - N/A   Scattered Clouds
3:53 AM 63.0 °F - 54.0 °F 72% 30.02 in 10.0 mi Calm Calm - N/A   Partly Cloudy
4:53 AM 63.0 °F - 54.0 °F 72% 30.04 in 10.0 mi Calm Calm - N/A   Mostly Cloudy
5:53 AM 59.0 °F - 53.1 °F 81% 30.06 in 10.0 mi NNW 3.5 mph - N/A   Scattered Clouds
6:53 AM 63.0 °F - 54.0 °F 72% 30.07 in 10.0 mi SW 3.5 mph - N/A   Clear
7:53 AM 69.1 °F - 53.1 °F 57% 30.07 in 10.0 mi Calm Calm - N/A   Clear
8:53 AM 71.1 °F - 54.0 °F 55% 30.08 in 10.0 mi Calm Calm - N/A   Clear
9:53 AM 75.0 °F - 54.0 °F 48% 30.07 in 10.0 mi Variable 3.5 mph - N/A   Clear
10:53 AM 80.1 °F 80.2 °F 55.9 °F 43% 30.06 in 10.0 mi SE 6.9 mph - N/A   Clear
11:53 AM 82.0 °F - 52.0 °F 35% 30.05 in 10.0 mi SE 8.1 mph - N/A   Clear
12:53 PM 82.9 °F - 52.0 °F 34% 30.04 in 10.0 mi ESE 5.8 mph - N/A   Clear
1:53 PM 86.0 °F - 52.0 °F 31% 30.03 in 10.0 mi ENE 6.9 mph - N/A   Clear
2:53 PM 87.1 °F - 51.1 °F 29% 30.02 in 10.0 mi Variable 5.8 mph - N/A   Clear
3:53 PM 88.0 °F - 52.0 °F 29% 30.02 in 10.0 mi ENE 8.1 mph - N/A   Clear
4:53 PM 87.1 °F - 51.1 °F 29% 30.03 in 10.0 mi NNE 6.9 mph - N/A   Clear
5:53 PM 86.0 °F - 51.1 °F 30% 30.03 in 10.0 mi ENE 5.8 mph - N/A   Clear
6:53 PM 84.0 °F - 51.1 °F 32% 30.02 in 10.0 mi East 5.8 mph - N/A   Clear
7:53 PM 80.1 °F - 52.0 °F 38% 30.02 in 10.0 mi ENE 6.9 mph - N/A   Clear
8:53 PM 75.0 °F - 52.0 °F 44% 30.05 in 10.0 mi Calm Calm - N/A   Clear
9:53 PM 73.9 °F - 52.0 °F 46% 30.07 in 10.0 mi Calm Calm - N/A   Clear
10:53 PM 64.0 °F - 54.0 °F 70% 30.09 in 10.0 mi Calm Calm - N/A   Clear
11:53 PM 64.0 °F - 53.1 °F 67% 30.10 in 10.0 mi Calm Calm - N/A   Clear